Location: Grossmotten
(48.5500°N, 15.3833°E)
Time: 11:10:36
(UTC+00:00)

NOSS 3-3 (A) - Pass Details

Date: 15 November 2019
Orbit: 848 x 1364 km, 63.4° (Epoch: 05 December)

Event Time Altitude Azimuth Distance (km) Brightness Sun altitude
Exits shadow 04:28:32 - 224° (SW) 3,140 6.3 -16.0°
Reaches altitude 10° 04:30:02 10° 225° (SW) 2,576 5.9 -15.8°
Maximum altitude 04:36:02 81° 313° (NW) 989 3.9 -14.8°
Drops below altitude 10° 04:42:50 10° 41° (NE) 2,906 6.9 -13.7°
Sets 04:45:40 0° 42° (NE) 3,946 7.6 -13.3°
